This is the latest recevied weather packets stored in our database for station/object SQ5OUZ-8. If no packets are shown the sender has not sent any weather packets the latest 10 day(s).
| Time | Temp. | Humidity | Pressure | Rain* | Wind** | Luminosity | Snow |
|---|---|---|---|---|---|---|---|
| 1777845746 | 16.67° C | 41% | 1016 hPa | - | - | - | - |
| 1777844731 | 16.67° C | 40% | 1016 hPa | - | - | - | - |
| 1777843641 | 16.67° C | 40% | 1016 hPa | - | - | - | - |
| 1777841606 | 17.22° C | 38% | 1016 hPa | - | - | - | - |
| 1777840527 | 17.78° C | 36% | 1016 hPa | - | - | - | - |
| 1777839441 | 18.33° C | 34% | 1016 hPa | - | - | - | - |
| 1777837338 | 19.44° C | 31% | 1016 hPa | - | - | - | - |
| 1777836285 | 19.44° C | 30% | 1016 hPa | - | - | - | - |
| 1777835324 | 20° C | 29% | 1015 hPa | - | - | - | - |
| 1777834137 | 20.56° C | 28% | 1015 hPa | - | - | - | - |
| 1777833034 | 21.11° C | 27% | 1015 hPa | - | - | - | - |
| 1777831914 | 22.22° C | 26% | 1015 hPa | - | - | - | - |
| 1777825377 | 26.67° C | 19% | 1015 hPa | - | - | - | - |
| 1777822064 | 30° C | 16% | 1015 hPa | - | - | - | - |
| 1777821035 | 31.11° C | 16% | 1015 hPa | - | - | - | - |
| 1777820078 | 30° C | 16% | 1015 hPa | - | - | - | - |
| 1777811547 | 30° C | 18% | 1017 hPa | - | - | - | - |
| 1777810457 | 29.44° C | 18% | 1017 hPa | - | - | - | - |
| 1777809448 | 30° C | 18% | 1017 hPa | - | - | - | - |
| 1777808456 | 30° C | 17% | 1017 hPa | - | - | - | - |
| 1777804186 | 30° C | 18% | 1018 hPa | - | - | - | - |
| 1777803186 | 28.89° C | 19% | 1018 hPa | - | - | - | - |
| 1777802119 | 28.33° C | 20% | 1018 hPa | - | - | - | - |
| 1777801159 | 27.78° C | 20% | 1019 hPa | - | - | - | - |
| 1777800045 | 27.78° C | 21% | 1019 hPa | - | - | - | - |
* Rain since midnight (hover to see other rain measurements)
** Current wind speed in m/s (hover to see current wind gust speed)